This demonstration page uses our WeatherBlox Daily Observations layout. Learn more.

Left ArrowRight Arrow

Hourly Observations for July 31, 2017

Temp ( °F °C ) Dew Point ( °F °C ) Humidity (%) Winds ( mph kmh ) Pressure ( in mb ) Visibility ( mi km ) Precip ( " mm )
12:53 am 00:53 Clear 83 28.3 64 17.8 53 53 SE 17 28 29.91 1013 10 16 0.00 0.00
1:53 am 01:53 Clear 82 27.8 64 17.8 55 55 SE 12 19 29.88 1012 10 16 0.00 0.00
2:53 am 02:53 Clear 81 27.2 62 16.7 53 53 SE 9 15 29.88 1012 10 16 0.00 0.00
3:53 am 03:53 Mostly Cloudy 81 27.2 61 16.1 51 51 ESE 8 13 29.89 1012 10 16 0.00 0.00
4:53 am 04:53 Clear 79 26.1 61 16.1 54 54 NE 5 7 29.90 1012 10 16 0.00 0.00
5:53 am 05:53 Clear 79 26.1 66 18.9 65 65 ESE 10 17 29.90 1012 10 16 0.00 0.00
6:53 am 06:53 Clear 79 26.1 67 19.4 67 67 ESE 12 19 29.91 1013 10 16 0.00 0.00
7:53 am 07:53 Sunny 79 26.1 67 19.4 67 67 E 8 13 29.93 1014 10 16 0.00 0.00
8:53 am 08:53 Sunny 81 27.2 66 18.9 61 61 E 15 24 29.96 1015 10 16 0.00 0.00
9:53 am 09:53 Sunny 85 29.4 65 18.3 51 51 E 13 20 29.97 1015 10 16 0.00 0.00
10:53 am 10:53 Sunny 87 30.6 65 18.3 48 48 E 12 19 29.98 1015 10 16 0.00 0.00
11:53 am 11:53 Sunny 88 31.1 66 18.9 48 48 E 14 22 29.98 1015 10 16 0.00 0.00
12:53 pm 12:53 Partly Cloudy 90 32.2 66 18.9 45 45 E 14 22 29.97 1015 10 16 0.00 0.00
1:53 pm 13:53 Mostly Sunny 91 32.8 64 17.8 41 41 ESE 14 22 29.96 1014 10 16 0.00 0.00
2:53 pm 14:53 Mostly Sunny 94 34.4 64 17.8 37 37 E 13 20 29.92 1013 10 16 0.00 0.00
3:53 pm 15:53 Mostly Sunny 95 35 63 17.2 35 35 ENE 10 17 29.89 1012 10 16 0.00 0.00
4:53 pm 16:53 Mostly Sunny 95 35 62 16.7 34 34 E 12 19 29.87 1012 10 16 0.00 0.00
5:53 pm 17:53 Sunny 95 35 62 16.7 34 34 ESE 13 20 29.84 1011 10 16 0.00 0.00
6:53 pm 18:53 Mostly Cloudy 95 35 60 15.6 31 31 E 13 20 29.84 1010 10 16 0.00 0.00
7:53 pm 19:53 Mostly Sunny 92 33.3 62 16.7 37 37 ESE 17 28 29.84 1011 10 16 0.00 0.00
8:53 pm 20:53 Clear 89 31.7 62 16.7 41 41 ESE 17 28 29.88 1012 10 16 0.00 0.00
9:53 pm 21:53 Clear 87 30.6 63 17.2 45 45 ESE 12 19 29.89 1012 10 16 0.00 0.00
10:53 pm 22:53 Clear 85 29.4 65 18.3 51 51 ESE 15 24 29.92 1013 10 16 0.00 0.00
11:53 pm 23:53 Mostly Cloudy 82 27.8 64 17.8 55 55 NNW 12 19 29.95 1014 9 14 0.00 0.00

Powered by AerisWeather